Weather History for KBQP - May, 2013

Change the Weather History Date:

Friday, May 24, 2013

  Actual Average (KMLU) Record (KMLU)
Temperature  
Mean Temperature 73 °F 76 °F  
Max Temperature 83 °F 87 °F 95 °F (1996)
Min Temperature 64 °F 65 °F 49 °F (1931)
Degree Days  
Heating Degree Days 0 0  
Month to date heating degree days 3  
Since 1 July heating degree days 2227  
Cooling Degree Days 8 11  
Month to date cooling degree days 204  
Year to date cooling degree days 351  
Growing Degree Days 23 (Base 50)    
Moisture  
Dew Point 63 °F    
Average Humidity 68    
Maximum Humidity 89    
Minimum Humidity 47    
Precipitation  
Precipitation 0.00 in 0.16 in 1.33 in (2005)
Month to date precipitation 4.05  
Year to date precipitation 22.91  
Snow  
Snow 0.00 in - - ()
Month to date snowfall  
Since 1 July snowfall  
Snow Depth -    
Sea Level Pressure  
Sea Level Pressure 30.17 in    
Wind  
Wind Speed 2 mph (NE)    
Max Wind Speed 9 mph    
Max Gust Speed 18 mph    
Visibility 10 miles    
Events      
T = Trace of Precipitation, MM = Missing Value Source: NWS Daily Summary

Daily Weather History Graph

Daily Weather History Graph

Search for Another Location

Airport or City:

Trip Planner

Search our weather history database for the weather conditions in past years. The results will help you decide how hot, cold, wet, or windy it might be!

Date:

Astronomy

May. 24, 2013 Rise Set
Actual Time 6:03 AM CDT 8:05 PM CDT
Civil Twilight 5:35 AM CDT 8:33 PM CDT
Nautical Twilight 5:01 AM CDT 9:07 PM CDT
Astronomical Twilight 4:25 AM CDT 9:43 PM CDT
Moon 7:49 PM CDT (5/24) 5:33 AM CDT (5/24)
Length of Visible Light 14h 58m
Length of Day
14h 02m
Full, 100% of the Moon is Illuminated
May 24
Full
May 24
Full
May 31
Last Quarter
Jun 8
New
Jun 16
First Quarter

Hourly Weather History & Observations

Time (CDT) Temp. Heat Index Dew Point Humidity Pressure Visibility Wind Dir Wind Speed Gust Speed Precip Events Conditions
12:15 AM 75.0 °F - 69.3 °F 82% 30.07 in 10.0 mi Calm Calm - N/A   Clear
12:35 AM 73.6 °F - 69.3 °F 86% 30.08 in 10.0 mi Calm Calm - N/A   Scattered Clouds
12:55 AM 75.4 °F - 69.3 °F 81% 30.08 in 10.0 mi Calm Calm - N/A   Mostly Cloudy
1:15 AM 74.8 °F - 68.9 °F 82% 30.07 in 10.0 mi Calm Calm - N/A   Scattered Clouds
1:35 AM 74.5 °F - 68.4 °F 81% 30.07 in 10.0 mi Calm Calm - N/A   Clear
1:55 AM 75.0 °F - 68.2 °F 79% 30.08 in 10.0 mi Calm Calm - N/A   Mostly Cloudy
2:15 AM 74.5 °F - 67.6 °F 79% 30.08 in 10.0 mi Calm Calm - N/A   Scattered Clouds
2:35 AM 73.8 °F - 67.3 °F 80% 30.08 in 10.0 mi Calm Calm - N/A   Clear
2:55 AM 72.7 °F - 67.3 °F 83% 30.07 in 10.0 mi Calm Calm - N/A   Clear
3:15 AM 71.6 °F - 67.3 °F 86% 30.07 in 10.0 mi Calm Calm - N/A   Clear
3:35 AM 70.9 °F - 67.3 °F 88% 30.07 in 10.0 mi Calm Calm - N/A   Clear
3:55 AM 70.3 °F - 67.1 °F 89% 30.07 in 10.0 mi Calm Calm - N/A   Clear
4:15 AM 71.8 °F - 66.7 °F 84% 30.08 in 10.0 mi Calm Calm - N/A   Clear
4:35 AM 71.8 °F - 66.6 °F 84% 30.08 in 10.0 mi Calm Calm - N/A   Clear
4:55 AM 72.5 °F - 66.9 °F 83% 30.10 in 10.0 mi Calm Calm - N/A   Scattered Clouds
5:15 AM 72.5 °F - 67.1 °F 83% 30.10 in 10.0 mi Calm Calm - N/A   Overcast
5:35 AM 72.5 °F - 67.1 °F 83% 30.12 in 10.0 mi Calm Calm - N/A   Scattered Clouds
5:55 AM 72.5 °F - 66.7 °F 82% 30.13 in 10.0 mi Calm Calm - N/A   Scattered Clouds
6:15 AM 71.8 °F - 66.6 °F 84% 30.14 in 10.0 mi Calm Calm - N/A   Scattered Clouds
6:35 AM 71.6 °F - 64.8 °F 79% 30.16 in 10.0 mi NE 6.9 mph - N/A   Scattered Clouds
6:55 AM 70.9 °F - 63.0 °F 76% 30.16 in 10.0 mi NE 6.9 mph - N/A   Scattered Clouds
7:15 AM 71.2 °F - 62.2 °F 73% 30.17 in 10.0 mi NE 5.8 mph - N/A   Clear
7:35 AM 70.9 °F - 62.2 °F 74% 30.18 in 10.0 mi Calm Calm - N/A   Scattered Clouds
7:55 AM 70.9 °F - 61.0 °F 71% 30.19 in 10.0 mi ENE 5.8 mph - N/A   Overcast
8:15 AM 71.1 °F - 61.0 °F 70% 30.20 in 10.0 mi ENE 9.2 mph - N/A   Overcast
8:35 AM 72.0 °F - 61.0 °F 68% 30.21 in 10.0 mi NE 4.6 mph - N/A   Overcast
8:55 AM 73.2 °F - 61.2 °F 66% 30.22 in 10.0 mi ENE 4.6 mph - N/A   Scattered Clouds
9:15 AM 74.5 °F - 60.8 °F 62% 30.23 in 10.0 mi ENE 9.2 mph - N/A   Clear
9:35 AM 73.6 °F - 60.1 °F 63% 30.23 in 10.0 mi NE 5.8 mph 18.4 mph N/A   Scattered Clouds
9:55 AM 75.0 °F - 60.4 °F 60% 30.24 in 10.0 mi ENE 9.2 mph 16.1 mph N/A   Overcast
10:15 AM 76.1 °F - 61.2 °F 60% 30.24 in 10.0 mi ENE 8.1 mph - N/A   Overcast
10:35 AM 74.8 °F - 60.8 °F 62% 30.24 in 10.0 mi ENE 8.1 mph - N/A   Overcast
10:55 AM 74.1 °F - 59.9 °F 61% 30.25 in 10.0 mi ENE 8.1 mph 17.3 mph N/A   Overcast
11:15 AM 75.9 °F - 61.0 °F 60% 30.25 in 10.0 mi ENE 3.5 mph - N/A   Overcast
11:35 AM 75.7 °F - 59.9 °F 58% 30.26 in 10.0 mi NE 6.9 mph 16.1 mph N/A   Overcast
11:55 AM 75.7 °F - 60.3 °F 59% 30.25 in 10.0 mi NE 8.1 mph - N/A   Overcast
12:15 PM 76.3 °F - 61.0 °F 59% 30.25 in 10.0 mi ENE 3.5 mph - N/A   Mostly Cloudy
12:35 PM 77.9 °F - 61.3 °F 57% 30.25 in 10.0 mi East 4.6 mph - N/A   Scattered Clouds
12:55 PM 78.6 °F - 61.7 °F 56% 30.25 in 10.0 mi ENE 8.1 mph - N/A   Scattered Clouds
1:15 PM 79.2 °F - 61.9 °F 55% 30.24 in 10.0 mi NE 3.5 mph - N/A   Scattered Clouds
1:35 PM 79.7 °F - 62.1 °F 55% 30.24 in 10.0 mi Calm Calm - N/A   Clear
1:55 PM 81.0 °F 82.2 °F 63.0 °F 54% 30.24 in 10.0 mi Calm Calm - N/A   Clear
2:15 PM 81.5 °F 82.5 °F 62.2 °F 52% 30.23 in 10.0 mi East 9.2 mph - N/A   Clear
2:35 PM 81.9 °F 82.9 °F 62.4 °F 52% 30.22 in 10.0 mi ENE 9.2 mph - N/A   Scattered Clouds
2:55 PM 82.4 °F 83.4 °F 62.8 °F 51% 30.22 in 10.0 mi Calm Calm - N/A   Scattered Clouds
3:15 PM 82.2 °F 83.2 °F 62.4 °F 51% 30.22 in 10.0 mi NE 8.1 mph - N/A   Clear
3:35 PM 82.0 °F 82.7 °F 61.3 °F 49% 30.21 in 10.0 mi ENE 3.5 mph - N/A   Clear
3:55 PM 82.2 °F 82.9 °F 61.3 °F 49% 30.20 in 10.0 mi NE 6.9 mph - N/A   Clear
4:15 PM 82.4 °F 83.0 °F 61.3 °F 49% 30.19 in 10.0 mi Calm Calm - N/A   Clear
4:35 PM 82.9 °F 83.7 °F 61.7 °F 49% 30.18 in 10.0 mi North 4.6 mph - N/A   Clear
4:55 PM 82.4 °F 82.7 °F 60.1 °F 47% 30.18 in 10.0 mi Calm Calm - N/A   Clear
5:15 PM 82.0 °F 82.5 °F 60.4 °F 48% 30.18 in 10.0 mi ENE 5.8 mph - N/A   Clear
5:35 PM 81.9 °F 82.5 °F 61.2 °F 49% 30.17 in 10.0 mi ENE 3.5 mph - N/A   Clear
5:55 PM 81.5 °F 82.2 °F 61.0 °F 50% 30.17 in 10.0 mi NE 4.6 mph - N/A   Clear
6:15 PM 80.8 °F 81.5 °F 60.8 °F 50% 30.17 in 10.0 mi Calm Calm - N/A   Clear
6:35 PM 80.2 °F 81.1 °F 60.8 °F 51% 30.17 in 10.0 mi Calm Calm - N/A   Clear
6:55 PM 79.0 °F - 59.0 °F 50% 30.17 in 10.0 mi Calm Calm - N/A   Clear
7:15 PM 77.0 °F - 59.2 °F 54% 30.17 in 10.0 mi Calm Calm - N/A   Clear
7:35 PM 75.6 °F - 59.2 °F 57% 30.17 in 10.0 mi Calm Calm - N/A   Clear
7:55 PM 74.1 °F - 60.1 °F 61% 30.18 in 10.0 mi Calm Calm - N/A   Clear
8:15 PM 71.1 °F - 62.1 °F 73% 30.18 in 10.0 mi Calm Calm - N/A   Clear
8:35 PM 69.3 °F - 61.3 °F 76% 30.18 in 10.0 mi Calm Calm - N/A   Clear
8:55 PM 68.0 °F - 61.5 °F 80% 30.19 in 10.0 mi Calm Calm - N/A   Clear
9:15 PM 67.3 °F - 61.0 °F 80% 30.19 in 10.0 mi Calm Calm - N/A   Clear
9:35 PM 66.9 °F - 60.4 °F 80% 30.19 in 10.0 mi Calm Calm - N/A   Clear
9:55 PM 66.7 °F - 60.6 °F 81% 30.19 in 10.0 mi Calm Calm - N/A   Clear
10:15 PM 66.2 °F - 60.8 °F 83% 30.20 in 10.0 mi Calm Calm - N/A   Clear
10:35 PM 66.2 °F - 60.1 °F 81% 30.20 in 10.0 mi Calm Calm - N/A   Clear
10:55 PM 66.2 °F - 59.5 °F 79% 30.20 in 10.0 mi Calm Calm - N/A   Clear
11:15 PM 65.1 °F - 59.7 °F 83% 30.20 in 10.0 mi Calm Calm - N/A   Clear
11:35 PM 64.9 °F - 59.9 °F 84% 30.20 in 10.0 mi Calm Calm - N/A   Clear
11:55 PM 64.2 °F - 59.7 °F 85% 30.20 in 10.0 mi Calm Calm - N/A   Clear